GFSNIL_850_temp_021.txt.gz
Temp
21 21 21 21 21 20 19 18 17 17 17 16 15 15 15 15 15 15 14 14 14 13
21 21 21 22 21 21 19 19 18 17 17 16 15 15 15 15 14 14 14 14 13 13
22 22 21 20 21 21 21 19 18 18 17 16 16 15 15 15 14 14 14 13 14 13
22 21 21 22 20 21 19 19 18 17 17 16 16 15 15 15 14 14 14 14 14 14
22 21 21 20 21 20 19 18 17 17 17 17 16 15 15 14 14 14 14 14 14 14
23 21 20 20 20 19 18 18 18 17 17 17 16 16 15 15 14 14 14 14 14 14
23 22 20 19 20 19 19 17 18 18 18 17 16 16 15 15 15 14 15 15 14 14
22 22 20 19 19 20 19 18 18 18 17 16 16 16 15 15 15 15 15 15 14 14
22 21 20 19 18 19 19 18 16 17 17 16 17 16 15 15 15 15 15 15 14 14
21 20 20 19 18 17 18 16 17 17 17 16 16 16 16 15 15 15 15 15 14 14
20 19 17 18 18 16 17 16 16 16 17 16 16 16 16 15 15 15 14 14 14 14
20 19 17 17 17 15 15 16 16 16 17 16 16 16 15 15 13 12 13 13 14 13
20 18 17 16 15 14 15 15 14 14 15 16 17 17 15 16 14 12 12 11 12 13
21 18 17 16 15 14 14 14 15 15 16 17 17 17 16 16 14 13 11 11 12 12

GFSNIL_850_temp_024.txt.gz
Temp
22 19 19 18 19 19 19 18 17 18 17 17 17 16 16 14 14 14 14 14 14 15
22 21 19 19 18 19 19 18 18 18 17 17 16 16 15 14 14 14 14 14 14 14
22 21 20 21 21 19 21 20 20 18 18 17 16 16 16 15 14 14 14 14 14 13
22 21 21 22 22 21 21 21 20 19 19 18 17 16 16 15 15 14 13 13 13 13
23 22 22 22 22 21 21 21 20 18 19 18 17 16 14 15 14 14 13 13 13 13
22 21 23 22 22 21 21 21 19 20 19 18 18 17 16 16 15 14 14 14 13 14
19 22 24 23 22 21 22 21 21 21 20 18 18 17 16 16 16 15 14 14 14 14
19 19 21 21 22 21 21 21 20 20 19 18 17 18 17 15 16 15 14 14 14 14
19 20 20 21 21 20 20 20 19 20 18 17 17 16 16 17 16 15 14 14 14 14
20 21 20 17 19 19 19 18 18 18 17 18 17 16 17 16 16 14 14 14 14 13
21 22 21 18 16 18 18 17 16 16 17 15 15 14 17 16 15 15 14 14 15 14
23 21 20 19 17 15 15 15 14 14 15 15 14 14 15 16 16 15 15 14 15 14
22 20 18 18 16 16 15 15 14 14 14 14 14 14 16 16 16 15 15 15 14 13
23 23 21 19 16 17 15 14 14 14 14 14 14 14 16 16 16 16 15 15 15 13

GFSNIL_850_temp_030.txt.gz
Temp
22 21 21 22 21 21 21 21 20 20 19 19 19 18 19 21 19 18 17 16 17 17
23 22 21 21 21 21 21 22 21 21 20 20 20 20 18 18 18 18 17 16 15 16
23 23 22 21 21 21 21 21 21 21 21 21 20 19 18 18 17 17 17 15 15 15
23 23 23 21 21 21 21 21 21 21 21 21 20 19 18 18 18 17 17 17 16 15
23 23 22 23 21 21 21 21 20 20 21 21 20 20 19 18 17 16 17 18 18 16
23 23 23 24 23 21 21 21 21 21 21 21 21 20 20 19 18 18 17 18 18 17
22 23 24 24 23 22 22 22 22 21 21 21 21 20 19 19 18 18 18 18 17 16
23 23 23 22 21 21 21 21 21 21 20 20 20 20 19 18 18 18 18 17 17 16
23 22 22 21 20 20 20 20 20 20 19 19 19 19 18 17 17 17 17 17 15 16
24 23 22 21 21 20 20 19 19 18 17 17 18 19 17 16 17 16 16 16 16 16
24 23 22 21 21 20 19 19 18 17 16 16 17 18 16 16 17 16 16 15 15 16
24 22 22 22 21 20 19 18 18 17 16 16 16 16 16 16 15 15 15 15 15 15
23 22 22 22 20 19 19 18 18 17 16 16 16 15 15 15 15 15 15 14 14 15
21 21 21 20 19 18 18 18 17 16 16 15 16 16 15 14 14 14 14 14 14 15

GFSNIL_850_temp_033.txt.gz
Temp
21 21 21 21 21 21 21 21 21 20 20 19 19 20 20 20 19 19 18 18 18 17
22 21 21 22 21 21 21 21 21 20 21 21 20 20 20 20 19 19 18 18 18 18
23 22 22 22 22 21 21 21 21 21 21 21 20 21 20 20 19 18 18 17 17 17
23 23 22 22 22 22 21 21 21 21 21 21 21 21 21 19 19 18 17 17 17 16
24 23 23 22 22 22 22 21 20 20 21 21 21 21 21 20 19 18 18 17 16 16
24 23 23 24 23 22 22 22 21 21 21 21 21 20 21 20 19 19 19 18 17 17
25 24 24 24 23 22 22 21 21 22 22 21 21 20 20 20 19 18 18 18 18 17
26 25 24 24 24 23 22 21 21 21 21 20 20 20 19 20 19 18 18 18 16 17
26 25 24 24 23 23 22 21 20 20 20 20 19 18 18 19 19 19 18 18 17 17
26 26 25 24 23 22 21 20 20 19 19 19 18 18 18 18 18 18 18 17 17 16
26 25 25 23 22 21 20 20 20 19 19 18 18 17 16 17 17 17 17 17 17 16
26 25 24 23 22 21 20 19 19 19 19 18 17 16 16 16 16 16 16 16 15 15
26 25 24 23 22 21 20 20 20 19 19 18 17 16 16 16 16 16 15 15 15 15
26 25 24 22 21 21 21 20 20 19 19 23 18 17 16 15 15 15 15 14 14 14